Year,Month,Day,Hour,Minute,Value (Times are PST for temperature in C)
2006,10,12,00,00,11.10
2006,10,12,00,01,11.10
2006,10,12,00,02,11.10
2006,10,12,00,03,11.10
2006,10,12,00,04,11.10
2006,10,12,00,05,11.10
2006,10,12,00,06,11.30
2006,10,12,00,07,11.30
2006,10,12,00,08,11.30
2006,10,12,00,09,11.30
2006,10,12,00,10,11.30
2006,10,12,00,11,11.30
2006,10,12,00,12,11.30
2006,10,12,00,13,11.20
2006,10,12,00,14,11.20
2006,10,12,00,15,11.20
2006,10,12,00,16,11.10
2006,10,12,00,17,11.10
2006,10,12,00,18,11.10
2006,10,12,00,19,11.10
2006,10,12,00,20,11.10
2006,10,12,00,21,11.10
2006,10,12,00,22,11.00
2006,10,12,00,23,10.90
2006,10,12,00,24,10.90
2006,10,12,00,25,10.90
2006,10,12,00,26,10.90
2006,10,12,00,27,10.90
2006,10,12,00,28,10.90
2006,10,12,00,29,10.90
2006,10,12,00,30,10.90
2006,10,12,00,31,10.90
2006,10,12,00,32,10.90
2006,10,12,00,33,10.90
2006,10,12,00,34,10.80
2006,10,12,00,35,10.80
2006,10,12,00,36,10.80
2006,10,12,00,37,10.80
2006,10,12,00,38,10.80
2006,10,12,00,39,10.70
2006,10,12,00,40,10.70
2006,10,12,00,41,10.70
2006,10,12,00,42,10.70
2006,10,12,00,43,10.70
2006,10,12,00,44,10.70
2006,10,12,00,45,10.60
2006,10,12,00,46,10.60
2006,10,12,00,47,10.60
2006,10,12,00,48,10.60
2006,10,12,00,49,10.60
2006,10,12,00,50,10.60
2006,10,12,00,51,10.50
2006,10,12,00,52,10.40
2006,10,12,00,53,10.40
2006,10,12,00,54,10.40
2006,10,12,00,55,10.30
2006,10,12,00,56,10.30
2006,10,12,00,57,10.30
2006,10,12,00,58,10.30
2006,10,12,00,59,10.30
2006,10,12,01,00,10.30
2006,10,12,01,01,10.30
2006,10,12,01,02,10.20
2006,10,12,01,03,10.20
2006,10,12,01,04,10.20
2006,10,12,01,05,10.20
2006,10,12,01,06,10.20
2006,10,12,01,07,10.20
2006,10,12,01,08,10.20
2006,10,12,01,09,10.20
2006,10,12,01,10,10.20
2006,10,12,01,11,10.20
2006,10,12,01,12,10.20
2006,10,12,01,13,10.20
2006,10,12,01,14,10.20
2006,10,12,01,15,10.20
2006,10,12,01,16,10.20
2006,10,12,01,17,10.20
2006,10,12,01,18,10.20
2006,10,12,01,19,10.20
2006,10,12,01,20,10.20
2006,10,12,01,21,10.20
2006,10,12,01,22,10.20
2006,10,12,01,23,10.20
2006,10,12,01,24,10.20
2006,10,12,01,25,10.20
2006,10,12,01,26,10.20
2006,10,12,01,27,10.20
2006,10,12,01,28,10.20
2006,10,12,01,29,10.20
2006,10,12,01,30,10.30
2006,10,12,01,31,10.30
2006,10,12,01,32,10.30
2006,10,12,01,33,10.30
2006,10,12,01,34,10.40
2006,10,12,01,35,10.40
2006,10,12,01,36,10.40
2006,10,12,01,37,10.40
2006,10,12,01,38,10.40
2006,10,12,01,39,10.40
2006,10,12,01,40,10.40
2006,10,12,01,41,10.40
2006,10,12,01,42,10.40
2006,10,12,01,43,10.30
2006,10,12,01,44,10.30
2006,10,12,01,45,10.30
2006,10,12,01,46,10.30
2006,10,12,01,47,10.30
2006,10,12,01,48,10.30
2006,10,12,01,49,10.30
2006,10,12,01,50,10.40
2006,10,12,01,51,10.40
2006,10,12,01,52,10.40
2006,10,12,01,53,10.40
2006,10,12,01,54,10.40
2006,10,12,01,55,10.40
2006,10,12,01,56,10.40
2006,10,12,01,57,10.40
2006,10,12,01,58,10.40
2006,10,12,01,59,10.40
2006,10,12,02,00,10.60
2006,10,12,02,01,10.60
2006,10,12,02,02,10.60
2006,10,12,02,03,10.60
2006,10,12,02,04,10.60
2006,10,12,02,05,10.60
2006,10,12,02,06,10.70
2006,10,12,02,07,10.70
2006,10,12,02,08,10.70
2006,10,12,02,09,10.70
2006,10,12,02,10,10.70
2006,10,12,02,11,10.70
2006,10,12,02,12,10.80
2006,10,12,02,13,10.80
2006,10,12,02,14,10.80
2006,10,12,02,15,10.80
2006,10,12,02,16,10.80
2006,10,12,02,17,10.80
2006,10,12,02,18,10.70
2006,10,12,02,19,10.70
2006,10,12,02,20,10.70
2006,10,12,02,21,10.70
2006,10,12,02,22,10.70
2006,10,12,02,23,10.60
2006,10,12,02,24,10.70
2006,10,12,02,25,10.70
2006,10,12,02,26,10.60
2006,10,12,02,27,10.60
2006,10,12,02,28,10.60
2006,10,12,02,29,10.60
2006,10,12,02,30,10.60
2006,10,12,02,31,10.60
2006,10,12,02,32,10.60
2006,10,12,02,33,10.60
2006,10,12,02,34,10.60
2006,10,12,02,35,10.60
2006,10,12,02,36,10.60
2006,10,12,02,37,10.60
2006,10,12,02,38,10.60
2006,10,12,02,39,10.60
2006,10,12,02,40,10.60
2006,10,12,02,41,10.60
2006,10,12,02,42,10.60
2006,10,12,02,43,10.60
2006,10,12,02,44,10.60
2006,10,12,02,45,10.60
2006,10,12,02,46,10.60
2006,10,12,02,47,10.60
2006,10,12,02,48,10.60
2006,10,12,02,49,10.60
2006,10,12,02,50,10.60
2006,10,12,02,51,10.60
2006,10,12,02,52,10.60
2006,10,12,02,53,10.60
2006,10,12,02,54,10.60
2006,10,12,02,55,10.60
2006,10,12,02,56,10.60
2006,10,12,02,57,10.60
2006,10,12,02,58,10.50
2006,10,12,02,59,10.40
2006,10,12,03,00,10.40
2006,10,12,03,01,10.40
2006,10,12,03,02,10.40
2006,10,12,03,03,10.30
2006,10,12,03,04,10.30
2006,10,12,03,05,10.20
2006,10,12,03,06,10.20
2006,10,12,03,07,10.10
2006,10,12,03,08,10.10
2006,10,12,03,09,10.00
2006,10,12,03,10,9.90
2006,10,12,03,11,9.90
2006,10,12,03,12,9.80
2006,10,12,03,13,9.70
2006,10,12,03,14,9.70
2006,10,12,03,15,9.70
2006,10,12,03,16,9.70
2006,10,12,03,17,9.60
2006,10,12,03,18,9.60
2006,10,12,03,19,9.60
2006,10,12,03,20,9.50
2006,10,12,03,21,9.50
2006,10,12,03,22,9.50
2006,10,12,03,23,9.50
2006,10,12,03,24,9.40
2006,10,12,03,25,9.40
2006,10,12,03,26,9.40
2006,10,12,03,27,9.30
2006,10,12,03,28,9.30
2006,10,12,03,29,9.30
2006,10,12,03,30,9.20
2006,10,12,03,31,9.20
2006,10,12,03,32,9.20
2006,10,12,03,33,9.20
2006,10,12,03,34,9.20
2006,10,12,03,35,9.20
2006,10,12,03,36,9.20
2006,10,12,03,37,9.20
2006,10,12,03,38,9.20
2006,10,12,03,39,9.20
2006,10,12,03,40,9.20
2006,10,12,03,41,9.20
2006,10,12,03,42,9.20
2006,10,12,03,43,9.10
2006,10,12,03,44,9.10
2006,10,12,03,45,9.10
2006,10,12,03,46,9.10
2006,10,12,03,47,9.10
2006,10,12,03,48,9.10
2006,10,12,03,49,9.10
2006,10,12,03,50,9.10
2006,10,12,03,51,9.10
2006,10,12,03,52,9.10
2006,10,12,03,53,9.10
2006,10,12,03,54,9.10
2006,10,12,03,55,9.10
2006,10,12,03,56,9.10
2006,10,12,03,57,9.10
2006,10,12,03,58,9.10
2006,10,12,03,59,9.10
2006,10,12,04,00,9.10
2006,10,12,04,01,9.10
2006,10,12,04,02,9.10
2006,10,12,04,03,9.10
2006,10,12,04,04,9.10
2006,10,12,04,05,9.00
2006,10,12,04,06,9.00
2006,10,12,04,07,9.00
2006,10,12,04,08,8.90
2006,10,12,04,09,8.90
2006,10,12,04,10,8.90
2006,10,12,04,11,8.90
2006,10,12,04,12,8.90
2006,10,12,04,13,8.80
2006,10,12,04,14,8.80
2006,10,12,04,15,8.80
2006,10,12,04,16,8.80
2006,10,12,04,17,8.80
2006,10,12,04,18,8.80
2006,10,12,04,19,8.80
2006,10,12,04,20,8.80
2006,10,12,04,21,8.90
2006,10,12,04,22,8.90
2006,10,12,04,23,8.90
2006,10,12,04,24,8.90
2006,10,12,04,25,8.90
2006,10,12,04,26,8.90
2006,10,12,04,27,8.90
2006,10,12,04,28,8.90
2006,10,12,04,29,9.00
2006,10,12,04,30,9.00
2006,10,12,04,31,9.00
2006,10,12,04,32,9.00
2006,10,12,04,33,9.00
2006,10,12,04,34,9.00
2006,10,12,04,35,9.00
2006,10,12,04,36,9.00
2006,10,12,04,37,9.00
2006,10,12,04,38,9.10
2006,10,12,04,39,9.10
2006,10,12,04,40,9.20
2006,10,12,04,41,9.20
2006,10,12,04,42,9.20
2006,10,12,04,43,9.20
2006,10,12,04,44,9.20
2006,10,12,04,45,9.20
2006,10,12,04,46,9.20
2006,10,12,04,47,9.20
2006,10,12,04,48,9.20
2006,10,12,04,49,9.20
2006,10,12,04,50,9.30
2006,10,12,04,51,9.30
2006,10,12,04,52,9.30
2006,10,12,04,53,9.30
2006,10,12,04,54,9.20
2006,10,12,04,55,9.20
2006,10,12,04,56,9.20
2006,10,12,04,57,9.20
2006,10,12,04,58,9.20
2006,10,12,04,59,9.20
2006,10,12,05,00,9.20
2006,10,12,05,01,9.20
2006,10,12,05,02,9.20
2006,10,12,05,03,9.20
2006,10,12,05,04,9.20
2006,10,12,05,05,9.20
2006,10,12,05,06,9.20
2006,10,12,05,07,9.20
2006,10,12,05,08,9.20
2006,10,12,05,09,9.20
2006,10,12,05,10,9.20
2006,10,12,05,11,9.20
2006,10,12,05,12,9.20
2006,10,12,05,13,9.20
2006,10,12,05,14,9.20
2006,10,12,05,15,9.20
2006,10,12,05,16,9.20
2006,10,12,05,17,9.20
2006,10,12,05,18,9.20
2006,10,12,05,19,9.20
2006,10,12,05,20,9.20
2006,10,12,05,21,9.30
2006,10,12,05,22,9.20
2006,10,12,05,23,9.20
2006,10,12,05,24,9.20
2006,10,12,05,25,9.20
2006,10,12,05,26,9.20
2006,10,12,05,27,9.20
2006,10,12,05,28,9.20
2006,10,12,05,29,9.20
2006,10,12,05,30,9.20
2006,10,12,05,31,9.20
2006,10,12,05,32,9.20
2006,10,12,05,33,9.20
2006,10,12,05,34,9.30
2006,10,12,05,35,9.40
2006,10,12,05,36,9.50
2006,10,12,05,37,9.60
2006,10,12,05,38,9.70
2006,10,12,05,39,9.70
2006,10,12,05,40,9.70
2006,10,12,05,41,9.70
2006,10,12,05,42,9.70
2006,10,12,05,43,9.70
2006,10,12,05,44,9.70
2006,10,12,05,45,9.70
2006,10,12,05,46,9.70
2006,10,12,05,47,9.70
2006,10,12,05,48,9.70
2006,10,12,05,49,9.70
2006,10,12,05,50,9.70
2006,10,12,05,51,9.70
2006,10,12,05,52,9.70
2006,10,12,05,53,9.70
2006,10,12,05,54,9.70
2006,10,12,05,55,9.70
2006,10,12,05,56,9.70
2006,10,12,05,57,9.70
2006,10,12,05,58,9.70
2006,10,12,05,59,9.70
2006,10,12,06,00,9.70
2006,10,12,06,01,9.70
2006,10,12,06,02,9.70
2006,10,12,06,03,9.70
2006,10,12,06,04,9.70
2006,10,12,06,05,9.70
2006,10,12,06,06,9.70
2006,10,12,06,07,9.80
2006,10,12,06,08,9.80
2006,10,12,06,09,9.90
2006,10,12,06,10,9.90
2006,10,12,06,11,9.90
2006,10,12,06,12,10.00
2006,10,12,06,13,10.10
2006,10,12,06,14,10.10
2006,10,12,06,15,10.10
2006,10,12,06,16,10.20
2006,10,12,06,17,10.30
2006,10,12,06,18,10.30
2006,10,12,06,19,10.30
2006,10,12,06,20,10.30
2006,10,12,06,21,10.30
2006,10,12,06,22,10.20
2006,10,12,06,23,10.20
2006,10,12,06,24,10.20
2006,10,12,06,25,10.10
2006,10,12,06,26,10.10
2006,10,12,06,27,10.10
2006,10,12,06,28,10.10
2006,10,12,06,29,10.10
2006,10,12,06,30,10.10
2006,10,12,06,31,10.10
2006,10,12,06,32,10.10
2006,10,12,06,33,10.10
2006,10,12,06,34,10.10
2006,10,12,06,35,10.10
2006,10,12,06,36,10.10
2006,10,12,06,37,10.10
2006,10,12,06,38,10.10
2006,10,12,06,39,10.20
2006,10,12,06,40,10.20
2006,10,12,06,41,10.20
2006,10,12,06,42,10.20
2006,10,12,06,43,10.20
2006,10,12,06,44,10.20
2006,10,12,06,45,10.30
2006,10,12,06,46,10.30
2006,10,12,06,47,10.20
2006,10,12,06,48,10.20
2006,10,12,06,49,10.20
2006,10,12,06,50,10.10
2006,10,12,06,51,10.10
2006,10,12,06,52,10.10
2006,10,12,06,53,10.10
2006,10,12,06,54,9.90
2006,10,12,06,55,9.90
2006,10,12,06,56,9.90
2006,10,12,06,57,9.90
2006,10,12,06,58,9.90
2006,10,12,06,59,9.90
2006,10,12,07,00,9.90
2006,10,12,07,01,9.90
2006,10,12,07,02,9.90
2006,10,12,07,03,9.80
2006,10,12,07,04,9.80
2006,10,12,07,05,9.80
2006,10,12,07,06,9.80
2006,10,12,07,07,9.80
2006,10,12,07,08,9.70
2006,10,12,07,09,9.70
2006,10,12,07,10,9.70
2006,10,12,07,11,9.70
2006,10,12,07,12,9.60
2006,10,12,07,13,9.60
2006,10,12,07,14,9.60
2006,10,12,07,15,9.70
2006,10,12,07,16,9.70
2006,10,12,07,17,9.70
2006,10,12,07,18,9.70
2006,10,12,07,19,9.70
2006,10,12,07,20,9.70
2006,10,12,07,21,9.60
2006,10,12,07,22,9.60
2006,10,12,07,23,9.60
2006,10,12,07,24,9.60
2006,10,12,07,25,9.50
2006,10,12,07,26,9.50
2006,10,12,07,27,9.50
2006,10,12,07,28,9.50
2006,10,12,07,29,9.50
2006,10,12,07,30,9.50
2006,10,12,07,31,9.50
2006,10,12,07,32,9.50
2006,10,12,07,33,9.50
2006,10,12,07,34,9.50
2006,10,12,07,35,9.50
2006,10,12,07,36,9.50
2006,10,12,07,37,9.50
2006,10,12,07,38,9.50
2006,10,12,07,39,9.50
2006,10,12,07,40,9.50
2006,10,12,07,41,9.50
2006,10,12,07,42,9.50
2006,10,12,07,43,9.50
2006,10,12,07,44,9.50
2006,10,12,07,45,9.50
2006,10,12,07,46,9.50
2006,10,12,07,47,9.50
2006,10,12,07,48,9.50
2006,10,12,07,49,9.60
2006,10,12,07,50,9.60
2006,10,12,07,51,9.60
2006,10,12,07,52,9.60
2006,10,12,07,53,9.60
2006,10,12,07,54,9.70
2006,10,12,07,55,9.70
2006,10,12,07,56,9.70
2006,10,12,07,57,9.70
2006,10,12,07,58,9.70
2006,10,12,07,59,9.70
2006,10,12,08,00,9.70
2006,10,12,08,01,9.80
2006,10,12,08,02,9.80
2006,10,12,08,03,9.80
2006,10,12,08,04,9.80
2006,10,12,08,05,9.80
2006,10,12,08,06,9.80
2006,10,12,08,07,9.80
2006,10,12,08,08,9.80
2006,10,12,08,09,9.80
2006,10,12,08,10,9.70
2006,10,12,08,11,9.70
2006,10,12,08,12,9.70
2006,10,12,08,13,9.70
2006,10,12,08,14,9.70
2006,10,12,08,15,9.70
2006,10,12,08,16,9.70
2006,10,12,08,17,9.70
2006,10,12,08,18,9.60
2006,10,12,08,19,9.60
2006,10,12,08,20,9.60
2006,10,12,08,21,9.50
2006,10,12,08,22,9.50
2006,10,12,08,23,9.50
2006,10,12,08,24,9.40
2006,10,12,08,25,9.40
2006,10,12,08,26,9.40
2006,10,12,08,27,9.40
2006,10,12,08,28,9.40
2006,10,12,08,29,9.40
2006,10,12,08,30,9.40
2006,10,12,08,31,9.40
2006,10,12,08,32,9.40
2006,10,12,08,33,9.50
2006,10,12,08,34,9.50
2006,10,12,08,35,9.50
2006,10,12,08,36,9.50
2006,10,12,08,37,9.50
2006,10,12,08,38,9.50
2006,10,12,08,39,9.50
2006,10,12,08,40,9.50
2006,10,12,08,41,9.50
2006,10,12,08,42,9.50
2006,10,12,08,43,9.60
2006,10,12,08,44,9.60
2006,10,12,08,45,9.60
2006,10,12,08,46,9.60
2006,10,12,08,47,9.60
2006,10,12,08,48,9.60
2006,10,12,08,49,9.60
2006,10,12,08,50,9.60
2006,10,12,08,51,9.70
2006,10,12,08,52,9.70
2006,10,12,08,53,9.70
2006,10,12,08,54,9.70
2006,10,12,08,55,9.70
2006,10,12,08,56,9.80
2006,10,12,08,57,9.80
2006,10,12,08,58,9.90
2006,10,12,08,59,9.90
2006,10,12,09,00,9.90
2006,10,12,09,01,10.00
2006,10,12,09,02,10.10
2006,10,12,09,03,10.10
2006,10,12,09,04,10.20
2006,10,12,09,05,10.20
2006,10,12,09,06,10.30
2006,10,12,09,07,10.40
2006,10,12,09,08,10.40
2006,10,12,09,09,10.50
2006,10,12,09,10,10.60
2006,10,12,09,11,10.80
2006,10,12,09,12,10.90
2006,10,12,09,13,11.10
2006,10,12,09,14,11.20
2006,10,12,09,15,11.30
2006,10,12,09,16,11.40
2006,10,12,09,17,11.50
2006,10,12,09,18,11.60
2006,10,12,09,19,11.70
2006,10,12,09,20,11.80
2006,10,12,09,21,11.90
2006,10,12,09,22,12.00
2006,10,12,09,23,12.10
2006,10,12,09,24,12.20
2006,10,12,09,25,12.30
2006,10,12,09,26,12.40
2006,10,12,09,27,12.50
2006,10,12,09,28,12.50
2006,10,12,09,29,12.70
2006,10,12,09,30,12.80
2006,10,12,09,31,12.80
2006,10,12,09,32,12.90
2006,10,12,09,33,12.90
2006,10,12,09,34,13.00
2006,10,12,09,35,13.10
2006,10,12,09,36,13.10
2006,10,12,09,37,13.20
2006,10,12,09,38,13.30
2006,10,12,09,39,13.40
2006,10,12,09,40,13.50
2006,10,12,09,41,13.50
2006,10,12,09,42,13.60
2006,10,12,09,43,13.60
2006,10,12,09,44,13.70
2006,10,12,09,45,13.70
2006,10,12,09,46,13.70
2006,10,12,09,47,13.80
2006,10,12,09,48,13.90
2006,10,12,09,49,13.90
2006,10,12,09,50,14.00
2006,10,12,09,51,14.10
2006,10,12,09,52,14.20
2006,10,12,09,53,14.30
2006,10,12,09,54,14.40
2006,10,12,09,55,14.50
2006,10,12,09,56,14.50
2006,10,12,09,57,14.50
2006,10,12,09,58,14.50
2006,10,12,09,59,14.60
2006,10,12,10,00,14.70
2006,10,12,10,01,14.70
2006,10,12,10,02,14.60
2006,10,12,10,03,14.50
2006,10,12,10,04,14.50
2006,10,12,10,05,14.40
2006,10,12,10,06,14.30
2006,10,12,10,07,14.20
2006,10,12,10,08,14.20
2006,10,12,10,09,14.10
2006,10,12,10,10,14.00
2006,10,12,10,11,14.00
2006,10,12,10,12,14.00
2006,10,12,10,13,14.00
2006,10,12,10,14,14.00
2006,10,12,10,15,14.00
2006,10,12,10,16,14.00
2006,10,12,10,17,14.00
2006,10,12,10,18,14.00
2006,10,12,10,19,14.10
2006,10,12,10,20,14.10
2006,10,12,10,21,14.20
2006,10,12,10,22,14.30
2006,10,12,10,23,14.40
2006,10,12,10,24,14.50
2006,10,12,10,25,14.60
2006,10,12,10,26,14.60
2006,10,12,10,27,14.70
2006,10,12,10,28,14.80
2006,10,12,10,29,14.80
2006,10,12,10,30,15.00
2006,10,12,10,31,15.00
2006,10,12,10,32,15.10
2006,10,12,10,33,15.20
2006,10,12,10,34,15.30
2006,10,12,10,35,15.40
2006,10,12,10,36,15.60
2006,10,12,10,37,15.70
2006,10,12,10,38,15.80
2006,10,12,10,39,15.80
2006,10,12,10,40,15.80
2006,10,12,10,41,15.90
2006,10,12,10,42,15.90
2006,10,12,10,43,15.90
2006,10,12,10,44,15.90
2006,10,12,10,45,15.80
2006,10,12,10,46,15.80
2006,10,12,10,47,15.70
2006,10,12,10,48,15.60
2006,10,12,10,49,15.60
2006,10,12,10,50,15.60
2006,10,12,10,51,15.70
2006,10,12,10,52,15.80
2006,10,12,10,53,15.80
2006,10,12,10,54,15.80
2006,10,12,10,55,15.80
2006,10,12,10,56,15.80
2006,10,12,10,57,15.80
2006,10,12,10,58,15.80
2006,10,12,10,59,15.80
2006,10,12,11,00,15.90
2006,10,12,11,01,15.90
2006,10,12,11,02,16.00
2006,10,12,11,03,16.10
2006,10,12,11,04,16.20
2006,10,12,11,05,16.20
2006,10,12,11,06,16.30
2006,10,12,11,07,16.30
2006,10,12,11,08,16.20
2006,10,12,11,09,16.10
2006,10,12,11,10,16.10
2006,10,12,11,11,16.10
2006,10,12,11,12,16.10
2006,10,12,11,13,16.10
2006,10,12,11,14,16.10
2006,10,12,11,15,16.10
2006,10,12,11,16,16.10
2006,10,12,11,17,16.10
2006,10,12,11,18,16.10
2006,10,12,11,19,15.90
2006,10,12,11,20,15.80
2006,10,12,11,21,15.60
2006,10,12,11,22,15.50
2006,10,12,11,23,15.30
2006,10,12,11,24,15.20
2006,10,12,11,25,15.10
2006,10,12,11,26,15.20
2006,10,12,11,27,15.20
2006,10,12,11,28,15.30
2006,10,12,11,29,15.50
2006,10,12,11,30,15.70
2006,10,12,11,31,15.80
2006,10,12,11,32,15.90
2006,10,12,11,33,16.00
2006,10,12,11,34,16.10
2006,10,12,11,35,16.20
2006,10,12,11,36,16.20
2006,10,12,11,37,16.40
2006,10,12,11,38,16.50
2006,10,12,11,39,16.70
2006,10,12,11,40,16.60
2006,10,12,11,41,16.20
2006,10,12,11,42,16.00
2006,10,12,11,43,15.90
2006,10,12,11,44,15.80
2006,10,12,11,45,15.90
2006,10,12,11,46,16.10
2006,10,12,11,47,16.20
2006,10,12,11,48,16.40
2006,10,12,11,49,16.40
2006,10,12,11,50,16.50
2006,10,12,11,51,16.70
2006,10,12,11,52,16.70
2006,10,12,11,53,16.70
2006,10,12,11,54,16.60
2006,10,12,11,55,16.40
2006,10,12,11,56,16.30
2006,10,12,11,57,16.30
2006,10,12,11,58,16.40
2006,10,12,11,59,16.40
2006,10,12,12,00,16.50
2006,10,12,12,01,16.60
2006,10,12,12,02,16.70
2006,10,12,12,03,16.80
2006,10,12,12,04,16.90
2006,10,12,12,05,17.00
2006,10,12,12,06,17.00
2006,10,12,12,07,17.10
2006,10,12,12,08,17.20
2006,10,12,12,09,17.30
2006,10,12,12,10,17.40
2006,10,12,12,11,17.50
2006,10,12,12,12,17.50
2006,10,12,12,13,17.50
2006,10,12,12,14,17.50
2006,10,12,12,15,17.50
2006,10,12,12,16,17.50
2006,10,12,12,17,17.40
2006,10,12,12,18,17.30
2006,10,12,12,19,17.40
2006,10,12,12,20,17.40
2006,10,12,12,21,17.50
2006,10,12,12,22,17.50
2006,10,12,12,23,17.50
2006,10,12,12,24,17.60
2006,10,12,12,25,17.60
2006,10,12,12,26,17.60
2006,10,12,12,27,17.50
2006,10,12,12,28,17.40
2006,10,12,12,29,17.20
2006,10,12,12,30,17.20
2006,10,12,12,31,17.10
2006,10,12,12,32,16.90
2006,10,12,12,33,16.70
2006,10,12,12,34,16.60
2006,10,12,12,35,16.40
2006,10,12,12,36,16.30
2006,10,12,12,37,16.30
2006,10,12,12,38,16.30
2006,10,12,12,39,16.40
2006,10,12,12,40,16.50
2006,10,12,12,41,16.60
2006,10,12,12,42,16.70
2006,10,12,12,43,16.70
2006,10,12,12,44,16.70
2006,10,12,12,45,16.70
2006,10,12,12,46,16.60
2006,10,12,12,47,16.60
2006,10,12,12,48,16.60
2006,10,12,12,49,16.60
2006,10,12,12,50,16.60
2006,10,12,12,51,16.70
2006,10,12,12,52,16.70
2006,10,12,12,53,16.70
2006,10,12,12,54,16.80
2006,10,12,12,55,16.90
2006,10,12,12,56,17.00
2006,10,12,12,57,17.10
2006,10,12,12,58,17.10
2006,10,12,12,59,17.10
2006,10,12,13,00,17.10
2006,10,12,13,01,17.20
2006,10,12,13,02,17.20
2006,10,12,13,03,17.30
2006,10,12,13,04,17.50
2006,10,12,13,05,17.60
2006,10,12,13,06,17.70
2006,10,12,13,07,17.80
2006,10,12,13,08,17.80
2006,10,12,13,09,17.70
2006,10,12,13,10,17.60
2006,10,12,13,11,17.50
2006,10,12,13,12,17.30
2006,10,12,13,13,17.30
2006,10,12,13,14,17.30
2006,10,12,13,15,17.30
2006,10,12,13,16,17.30
2006,10,12,13,17,17.30
2006,10,12,13,18,17.30
2006,10,12,13,19,17.20
2006,10,12,13,20,17.20
2006,10,12,13,21,17.10
2006,10,12,13,22,17.10
2006,10,12,13,23,17.10
2006,10,12,13,24,17.00
2006,10,12,13,25,17.00
2006,10,12,13,26,17.00
2006,10,12,13,27,17.00
2006,10,12,13,28,17.00
2006,10,12,13,29,17.10
2006,10,12,13,30,17.10
2006,10,12,13,31,17.10
2006,10,12,13,32,17.10
2006,10,12,13,33,17.10
2006,10,12,13,34,17.10
2006,10,12,13,35,17.10
2006,10,12,13,36,17.10
2006,10,12,13,37,17.20
2006,10,12,13,38,17.20
2006,10,12,13,39,17.30
2006,10,12,13,40,17.50
2006,10,12,13,41,17.70
2006,10,12,13,42,17.80
2006,10,12,13,43,18.00
2006,10,12,13,44,18.20
2006,10,12,13,45,18.20
2006,10,12,13,46,18.20
2006,10,12,13,47,18.20
2006,10,12,13,48,18.20
2006,10,12,13,49,18.20
2006,10,12,13,50,18.20
2006,10,12,13,51,18.20
2006,10,12,13,52,18.20
2006,10,12,13,53,18.20
2006,10,12,13,54,18.20
2006,10,12,13,55,18.20
2006,10,12,13,56,18.20
2006,10,12,13,57,18.10
2006,10,12,13,58,18.10
2006,10,12,13,59,18.10
2006,10,12,14,00,18.10
2006,10,12,14,01,18.10
2006,10,12,14,02,18.20
2006,10,12,14,03,18.20
2006,10,12,14,04,18.30
2006,10,12,14,05,18.40
2006,10,12,14,06,18.50
2006,10,12,14,07,18.50
2006,10,12,14,08,18.50
2006,10,12,14,09,18.50
2006,10,12,14,10,18.50
2006,10,12,14,11,18.60
2006,10,12,14,12,18.50
2006,10,12,14,13,18.50
2006,10,12,14,14,18.50
2006,10,12,14,15,18.50
2006,10,12,14,16,18.60
2006,10,12,14,17,18.70
2006,10,12,14,18,18.70
2006,10,12,14,19,18.80
2006,10,12,14,20,18.80
2006,10,12,14,21,18.90
2006,10,12,14,22,18.90
2006,10,12,14,23,19.00
2006,10,12,14,24,19.10
2006,10,12,14,25,19.10
2006,10,12,14,26,19.20
2006,10,12,14,27,19.40
2006,10,12,14,28,19.50
2006,10,12,14,29,19.70
2006,10,12,14,30,19.90
2006,10,12,14,31,19.90
2006,10,12,14,32,19.90
2006,10,12,14,33,20.00
2006,10,12,14,34,20.20
2006,10,12,14,35,20.20
2006,10,12,14,36,20.20
2006,10,12,14,37,20.10
2006,10,12,14,38,19.90
2006,10,12,14,39,19.70
2006,10,12,14,40,19.50
2006,10,12,14,41,19.30
2006,10,12,14,42,19.10
2006,10,12,14,43,18.90
2006,10,12,14,44,18.80
2006,10,12,14,45,18.60
2006,10,12,14,46,18.50
2006,10,12,14,47,18.50
2006,10,12,14,48,18.40
2006,10,12,14,49,18.30
2006,10,12,14,50,18.30
2006,10,12,14,51,18.20
2006,10,12,14,52,18.20
2006,10,12,14,53,18.20
2006,10,12,14,54,18.00
2006,10,12,14,55,17.90
2006,10,12,14,56,17.90
2006,10,12,14,57,17.90
2006,10,12,14,58,17.80
2006,10,12,14,59,17.80
2006,10,12,15,00,18.00
2006,10,12,15,01,18.10
2006,10,12,15,02,17.90
2006,10,12,15,03,17.90
2006,10,12,15,04,17.70
2006,10,12,15,05,17.70
2006,10,12,15,06,17.70
2006,10,12,15,07,17.70
2006,10,12,15,08,17.50
2006,10,12,15,09,17.50
2006,10,12,15,10,17.50
2006,10,12,15,11,17.50
2006,10,12,15,12,17.40
2006,10,12,15,13,17.30
2006,10,12,15,14,17.20
2006,10,12,15,15,17.00
2006,10,12,15,16,17.00
2006,10,12,15,17,17.10
2006,10,12,15,18,17.20
2006,10,12,15,19,17.50
2006,10,12,15,20,17.70
2006,10,12,15,21,17.60
2006,10,12,15,22,17.50
2006,10,12,15,23,17.40
2006,10,12,15,24,17.30
2006,10,12,15,25,17.10
2006,10,12,15,26,16.90
2006,10,12,15,27,16.80
2006,10,12,15,28,16.70
2006,10,12,15,29,16.60
2006,10,12,15,30,16.50
2006,10,12,15,31,16.40
2006,10,12,15,32,16.30
2006,10,12,15,33,16.20
2006,10,12,15,34,16.10
2006,10,12,15,35,16.10
2006,10,12,15,36,16.10
2006,10,12,15,37,16.10
2006,10,12,15,38,16.20
2006,10,12,15,39,16.30
2006,10,12,15,40,16.30
2006,10,12,15,41,16.20
2006,10,12,15,42,16.20
2006,10,12,15,43,16.30
2006,10,12,15,44,16.40
2006,10,12,15,45,16.60
2006,10,12,15,46,16.80
2006,10,12,15,47,16.80
2006,10,12,15,48,16.80
2006,10,12,15,49,16.80
2006,10,12,15,50,16.80
2006,10,12,15,51,16.70
2006,10,12,15,52,16.70
2006,10,12,15,53,16.70
2006,10,12,15,54,16.70
2006,10,12,15,55,16.70
2006,10,12,15,56,16.70
2006,10,12,15,57,16.70
2006,10,12,15,58,16.80
2006,10,12,15,59,16.80
2006,10,12,16,00,17.00
2006,10,12,16,01,17.20
2006,10,12,16,02,17.30
2006,10,12,16,03,17.30
2006,10,12,16,04,17.30
2006,10,12,16,05,17.30
2006,10,12,16,06,17.20
2006,10,12,16,07,17.20
2006,10,12,16,08,17.10
2006,10,12,16,09,17.20
2006,10,12,16,10,17.30
2006,10,12,16,11,17.30
2006,10,12,16,12,17.30
2006,10,12,16,13,17.30
2006,10,12,16,14,17.30
2006,10,12,16,15,17.30
2006,10,12,16,16,17.30
2006,10,12,16,17,17.40
2006,10,12,16,18,17.50
2006,10,12,16,19,17.70
2006,10,12,16,20,17.90
2006,10,12,16,21,17.90
2006,10,12,16,22,17.90
2006,10,12,16,23,18.00
2006,10,12,16,24,18.10
2006,10,12,16,25,18.20
2006,10,12,16,26,18.40
2006,10,12,16,27,18.40
2006,10,12,16,28,18.50
2006,10,12,16,29,18.60
2006,10,12,16,30,18.70
2006,10,12,16,31,18.80
2006,10,12,16,32,18.80
2006,10,12,16,33,18.80
2006,10,12,16,34,18.80
2006,10,12,16,35,18.80
2006,10,12,16,36,18.70
2006,10,12,16,37,18.50
2006,10,12,16,38,18.30
2006,10,12,16,39,18.20
2006,10,12,16,40,18.00
2006,10,12,16,41,17.90
2006,10,12,16,42,17.70
2006,10,12,16,43,17.40
2006,10,12,16,44,17.30
2006,10,12,16,45,17.10
2006,10,12,16,46,16.90
2006,10,12,16,47,16.80
2006,10,12,16,48,16.70
2006,10,12,16,49,16.70
2006,10,12,16,50,16.70
2006,10,12,16,51,16.70
2006,10,12,16,52,16.70
2006,10,12,16,53,16.70
2006,10,12,16,54,16.70
2006,10,12,16,55,16.70
2006,10,12,16,56,16.70
2006,10,12,16,57,16.70
2006,10,12,16,58,16.80
2006,10,12,16,59,16.90
2006,10,12,17,00,17.00
2006,10,12,17,01,17.20
2006,10,12,17,02,17.30
2006,10,12,17,03,17.30
2006,10,12,17,04,17.50
2006,10,12,17,05,17.60
2006,10,12,17,06,17.70
2006,10,12,17,07,17.80
2006,10,12,17,08,17.80
2006,10,12,17,09,17.90
2006,10,12,17,10,17.90
2006,10,12,17,11,17.90
2006,10,12,17,12,17.90
2006,10,12,17,13,17.90
2006,10,12,17,14,18.00
2006,10,12,17,15,18.10
2006,10,12,17,16,18.10
2006,10,12,17,17,18.20
2006,10,12,17,18,18.20
2006,10,12,17,19,18.30
2006,10,12,17,20,18.30
2006,10,12,17,21,18.30
2006,10,12,17,22,18.40
2006,10,12,17,23,18.40
2006,10,12,17,24,18.50
2006,10,12,17,25,18.50
2006,10,12,17,26,18.50
2006,10,12,17,27,18.50
2006,10,12,17,28,18.50
2006,10,12,17,29,18.40
2006,10,12,17,30,18.30
2006,10,12,17,31,18.30
2006,10,12,17,32,18.30